Location: Newark
(48.2308°N, 120.8549°W)
Time: 23:07:55
(UTC+00:00)

Transit 2A Rocket - Pass Details

Date: 26 May 2020
Orbit: 584 x 919 km, 66.7° (Epoch: 10 July)

Event Time Altitude Azimuth Distance (km) Brightness Sun altitude
Rises 14:14:27 0° 326° (NW) 3,430 8.1 18.0°
Reaches altitude 10° 14:17:17 10° 338° (NNW) 2,535 7.6 18.4°
Maximum altitude 14:22:17 27° 36° (NE) 1,657 7.7 19.2°
Drops below altitude 10° 14:27:26 10° 93° (E) 2,613 9.7 20.1°
Sets 14:30:23 0° 105° (ESE) 3,554 9.6 20.6°
